Location: Ajisawe
(8.4333°N, 4.3833°E)
Time: 20:29:35
(UTC+00:00)

Vanguard 2 Rocket - Pass Details

Date: 23 April 2021
Orbit: 554 x 3326 km, 32.9° (Epoch: 16 May)

Event Time Altitude Azimuth Distance (km) Brightness Sun altitude
Rises 13:45:52 0° 288° (WNW) 6,417 11.7 59.0°
Reaches altitude 10° 13:50:43 10° 298° (WNW) 5,727 11.6 57.8°
Maximum altitude 14:06:36 32° 355° (N) 4,673 11.1 53.9°
Drops below altitude 10° 14:23:11 10° 53° (NE) 5,949 10.9 49.9°
Sets 14:28:23 0° 63° (ENE) 6,684 11.0 48.6°
